Location: Newark
(44.1667°N, 8.2500°E)
Time: 17:17:23
(UTC+00:00)

S-56A Canister/Altair - Pass Details

Date: 17 December 2019
Orbit: 634 x 2498 km, 38.9° (Epoch: 23 January)

Event Time Altitude Azimuth Distance (km) Brightness Sun altitude
Rises 14:22:22 0° 285° (WNW) 6,167 12.5 11.0°
Reaches altitude 10° 14:27:18 10° 275° (W) 5,160 12.4 10.4°
Maximum altitude 14:38:31 27° 226° (SW) 3,684 12.8 9.0°
Drops below altitude 10° 14:48:13 10° 175° (S) 4,389 12.0 7.8°
Sets 14:52:02 0° 164° (SSE) 5,117 12.1 7.3°
